• In Deutschland
  • Länderverzeichnis
  • Für 7 Tage
  • Wassertemperatur
  • Satellitenkarten
  • Wetterkarte
  • Widgets
  • user-avatar
    Anmelden

    Stündliche Wetter Julara

    Heute, 26 Juni, Montag

    Zeit Temperatur Niederschläge Wind Luftdruck Luftfeuchtigkeit
    00:00 +15°C° 0 mm 6 m/S 720 mmHg 55%
    01:00 +15°C° 0 mm 6 m/S 720 mmHg 57%
    02:00 +15°C° 0 mm 6 m/S 720 mmHg 59%
    03:00 +14°C° 0 mm 6 m/S 719 mmHg 61%
    04:00 +14°C° 0 mm 7 m/S 719 mmHg 61%
    05:00 +14°C° 0 mm 7 m/S 720 mmHg 62%
    06:00 +13°C° 0 mm 8 m/S 720 mmHg 62%
    07:00 +13°C° 0 mm 8 m/S 720 mmHg 62%
    08:00 +13°C° 0 mm 8 m/S 720 mmHg 61%
    09:00 +13°C° 0 mm 8 m/S 720 mmHg 60%
    10:00 +15°C° 0,1 mm 8 m/S 720 mmHg 56%
    11:00 +17°C° 0,1 mm 7 m/S 720 mmHg 51%
    12:00 +19°C° 0,1 mm 6 m/S 720 mmHg 46%
    13:00 +20°C° 0,1 mm 6 m/S 720 mmHg 45%
    14:00 +20°C° 0,1 mm 5 m/S 720 mmHg 44%
    15:00 +20°C° 0 mm 3 m/S 720 mmHg 42%
    16:00 +19°C° 0,6 mm 4 m/S 720 mmHg 49%
    17:00 +17°C° 0,6 mm 5 m/S 720 mmHg 55%
    18:00 +16°C° 0,6 mm 6 m/S 720 mmHg 61%
    19:00 +16°C° 0,3 mm 6 m/S 720 mmHg 63%
    20:00 +15°C° 0,3 mm 6 m/S 720 mmHg 65%
    21:00 +15°C° 0 mm 6 m/S 720 mmHg 65%
    22:00 +15°C° 0 mm 6 m/S 720 mmHg 65%
    23:00 +15°C° 0 mm 5 m/S 720 mmHg 65%

    Morgen, 27 Juni, Dienstag

    Zeit Temperatur Niederschläge Wind Luftdruck Luftfeuchtigkeit
    00:00 +14°C° 0 mm 5 m/S 720 mmHg 64%
    01:00 +14°C° 0,2 mm 5 m/S 719 mmHg 65%
    02:00 +14°C° 0,2 mm 5 m/S 719 mmHg 66%
    03:00 +13°C° 0,2 mm 5 m/S 719 mmHg 67%
    04:00 +13°C° 0,9 mm 5 m/S 719 mmHg 70%
    05:00 +13°C° 0,9 mm 5 m/S 719 mmHg 72%
    06:00 +12°C° 0,9 mm 5 m/S 719 mmHg 75%
    07:00 +12°C° 1,8 mm 5 m/S 719 mmHg 77%
    08:00 +12°C° 1,8 mm 5 m/S 719 mmHg 79%
    09:00 +12°C° 1,8 mm 5 m/S 720 mmHg 81%
    10:00 +12°C° 1,3 mm 4 m/S 720 mmHg 81%
    11:00 +13°C° 1,3 mm 4 m/S 719 mmHg 80%
    12:00 +13°C° 1,3 mm 3 m/S 719 mmHg 79%
    13:00 +13°C° 0,2 mm 3 m/S 719 mmHg 77%
    14:00 +14°C° 0,2 mm 3 m/S 719 mmHg 76%
    15:00 +14°C° 0,2 mm 3 m/S 719 mmHg 74%
    16:00 +15°C° 0 mm 2 m/S 719 mmHg 76%
    17:00 +15°C° 0 mm 2 m/S 719 mmHg 78%
    18:00 +14°C° 0 mm 2 m/S 719 mmHg 80%
    19:00 +14°C° 0 mm 2 m/S 720 mmHg 82%
    20:00 +13°C° 0 mm 2 m/S 720 mmHg 84%
    21:00 +13°C° 0 mm 2 m/S 720 mmHg 87%
    22:00 +13°C° 0 mm 2 m/S 721 mmHg 88%
    23:00 +11°C° 0 mm 3 m/S 721 mmHg 89%

    übermorgen, 28 Juni, Mittwoch

    Zeit Temperatur Niederschläge Wind Luftdruck Luftfeuchtigkeit
    00:00 +11°C° 0 mm 3 m/S 721 mmHg 90%
    01:00 +11°C° 0 mm 4 m/S 721 mmHg 89%
    02:00 +11°C° 0 mm 4 m/S 721 mmHg 88%
    03:00 +11°C° 0 mm 4 m/S 721 mmHg 87%
    04:00 +10°C° 0 mm 5 m/S 721 mmHg 83%
    05:00 +10°C° 0 mm 5 m/S 721 mmHg 80%
    06:00 +12°C° 0 mm 5 m/S 721 mmHg 77%
    07:00 +11°C° 0 mm 6 m/S 722 mmHg 75%
    08:00 +11°C° 0 mm 6 m/S 722 mmHg 73%
    09:00 +12°C° 0 mm 7 m/S 723 mmHg 71%
    10:00 +12°C° 0 mm 7 m/S 723 mmHg 67%
    11:00 +14°C° 0 mm 7 m/S 723 mmHg 63%
    12:00 +15°C° 0 mm 7 m/S 723 mmHg 58%
    13:00 +15°C° 0 mm 7 m/S 722 mmHg 56%
    14:00 +15°C° 0 mm 7 m/S 722 mmHg 55%
    15:00 +16°C° 0 mm 7 m/S 722 mmHg 53%
    16:00 +15°C° 0 mm 7 m/S 722 mmHg 53%
    17:00 +14°C° 0 mm 6 m/S 723 mmHg 54%
    18:00 +13°C° 0 mm 5 m/S 723 mmHg 54%
    19:00 +13°C° 0 mm 5 m/S 724 mmHg 58%
    20:00 +11°C° 0 mm 6 m/S 724 mmHg 61%
    21:00 +10°C° 0 mm 6 m/S 725 mmHg 64%
    22:00 +10°C° 0 mm 6 m/S 725 mmHg 66%
    23:00 +9°C° 0 mm 6 m/S 725 mmHg 69%

    29 Juni, Donnerstag

    Zeit Temperatur Niederschläge Wind Luftdruck Luftfeuchtigkeit
    00:00 +9°C° 0 mm 5 m/S 725 mmHg 71%
    01:00 +8°C° 0 mm 5 m/S 725 mmHg 73%
    02:00 +8°C° 0 mm 5 m/S 726 mmHg 74%
    03:00 +8°C° 0 mm 5 m/S 726 mmHg 76%
    04:00 +7°C° 0 mm 5 m/S 726 mmHg 78%
    05:00 +7°C° 0 mm 5 m/S 726 mmHg 79%
    06:00 +5°C° 0 mm 6 m/S 726 mmHg 81%
    07:00 +7°C° 0 mm 6 m/S 726 mmHg 75%
    08:00 +6°C° 0 mm 7 m/S 727 mmHg 70%
    09:00 +7°C° 0 mm 8 m/S 727 mmHg 65%
    10:00 +9°C° 0 mm 8 m/S 727 mmHg 57%
    11:00 +10°C° 0 mm 8 m/S 727 mmHg 49%
    12:00 +12°C° 0 mm 8 m/S 726 mmHg 41%
    13:00 +12°C° 0 mm 8 m/S 726 mmHg 39%
    14:00 +13°C° 0 mm 8 m/S 725 mmHg 37%
    15:00 +15°C° 0 mm 8 m/S 725 mmHg 35%
    16:00 +14°C° 0 mm 7 m/S 725 mmHg 39%
    17:00 +12°C° 0 mm 7 m/S 725 mmHg 44%
    18:00 +11°C° 0 mm 6 m/S 725 mmHg 48%
    19:00 +10°C° 0 mm 6 m/S 725 mmHg 52%
    20:00 +10°C° 0 mm 6 m/S 726 mmHg 57%
    21:00 +9°C° 0 mm 6 m/S 726 mmHg 61%
    22:00 +9°C° 0 mm 6 m/S 726 mmHg 65%
    23:00 +8°C° 0 mm 6 m/S 726 mmHg 69%

    30 Juni, Freitag

    Zeit Temperatur Niederschläge Wind Luftdruck Luftfeuchtigkeit
    00:00 +8°C° 0 mm 6 m/S 726 mmHg 72%
    01:00 +8°C° 0 mm 6 m/S 726 mmHg 75%
    02:00 +7°C° 0 mm 6 m/S 725 mmHg 77%
    03:00 +7°C° 0 mm 6 m/S 725 mmHg 80%
    04:00 +7°C° 0 mm 6 m/S 725 mmHg 82%
    05:00 +6°C° 0 mm 5 m/S 725 mmHg 83%
    06:00 +6°C° 0 mm 5 m/S 725 mmHg 85%
    07:00 +7°C° 0 mm 6 m/S 725 mmHg 81%
    08:00 +8°C° 0 mm 7 m/S 726 mmHg 77%
    09:00 +8°C° 0 mm 7 m/S 726 mmHg 72%
    10:00 +10°C° 0 mm 7 m/S 725 mmHg 65%
    11:00 +11°C° 0 mm 7 m/S 725 mmHg 57%
    12:00 +14°C° 0 mm 7 m/S 724 mmHg 49%
    13:00 +15°C° 0 mm 6 m/S 724 mmHg 45%
    14:00 +15°C° 0 mm 6 m/S 723 mmHg 41%
    15:00 +16°C° 0 mm 6 m/S 722 mmHg 37%
    16:00 +15°C° 0 mm 5 m/S 722 mmHg 40%
    17:00 +14°C° 0 mm 4 m/S 722 mmHg 42%
    18:00 +13°C° 0 mm 4 m/S 722 mmHg 45%
    19:00 +13°C° 0 mm 4 m/S 723 mmHg 47%
    20:00 +12°C° 0 mm 4 m/S 723 mmHg 49%
    21:00 +11°C° 0 mm 4 m/S 723 mmHg 51%
    22:00 +11°C° 0 mm 4 m/S 723 mmHg 54%
    23:00 +10°C° 0 mm 4 m/S 723 mmHg 56%

    1 Juli, Samstag

    Zeit Temperatur Niederschläge Wind Luftdruck Luftfeuchtigkeit
    00:00 +10°C° 0 mm 4 m/S 723 mmHg 58%
    01:00 +8°C° 0 mm 4 m/S 723 mmHg 60%
    02:00 +9°C° 0 mm 3 m/S 723 mmHg 61%
    03:00 +8°C° 0 mm 3 m/S 722 mmHg 63%
    04:00 +8°C° 0 mm 3 m/S 722 mmHg 65%
    05:00 +7°C° 0 mm 3 m/S 722 mmHg 66%
    06:00 +7°C° 0 mm 3 m/S 723 mmHg 68%
    07:00 +7°C° 0 mm 4 m/S 723 mmHg 65%
    08:00 +8°C° 0 mm 4 m/S 723 mmHg 62%
    09:00 +8°C° 0 mm 5 m/S 723 mmHg 59%
    10:00 +10°C° 0 mm 5 m/S 723 mmHg 53%
    11:00 +13°C° 0 mm 4 m/S 722 mmHg 47%
    12:00 +14°C° 0 mm 4 m/S 722 mmHg 42%
    13:00 +16°C° 0 mm 3 m/S 721 mmHg 39%
    14:00 +17°C° 0 mm 2 m/S 720 mmHg 35%
    15:00 +17°C° 0 mm 2 m/S 720 mmHg 32%
    16:00 +16°C° 0 mm 2 m/S 720 mmHg 35%
    17:00 +15°C° 0 mm 1 m/S 720 mmHg 39%
    18:00 +14°C° 0 mm 1 m/S 720 mmHg 42%
    19:00 +14°C° 0 mm 1 m/S 720 mmHg 43%
    20:00 +13°C° 0 mm 1 m/S 720 mmHg 44%
    21:00 +13°C° 0 mm 1 m/S 721 mmHg 46%
    22:00 +12°C° 0 mm 1 m/S 720 mmHg 47%
    23:00 +12°C° 0 mm 1 m/S 720 mmHg 48%
    Mehr zeigen